Weather History for Perry, FL

Change the Weather History Date:

Friday, December 13, 2013

  Actual Average (KCTY) Record (KCTY)
Temperature  
Mean Temperature 50 °F 55 °F  
Max Temperature 69 °F 67 °F 82 °F (2000)
Min Temperature 32 °F 43 °F 28 °F (2010)
Degree Days  
Heating Degree Days 14 11  
Month to date heating degree days 119  
Since 1 July heating degree days 287  
Cooling Degree Days 0 1  
Month to date cooling degree days 13  
Year to date cooling degree days 2615  
Moisture  
Dew Point 41 °F    
Average Humidity 73    
Maximum Humidity 94    
Minimum Humidity 45    
Precipitation  
Precipitation 0.04 in 0.08 in 0.40 in (1998)
Month to date precipitation 1.18  
Year to date precipitation 47.02  
Sea Level Pressure  
Sea Level Pressure 30.26 in    
Wind  
Wind Speed 3 mph (ENE)    
Max Wind Speed 9 mph    
Max Gust Speed -    
Visibility 10 miles    
Events      
T = Trace of Precipitation, MM = Missing Value Source: NWS Daily Summary

Daily Weather History Graph

Daily Weather History Graph

Search for Another Location

Airport:

Trip Planner

Search our weather history database for the weather conditions in past years. The results will help you decide how hot, cold, wet, or windy it might be!

Date:

Astronomy

Dec. 13, 2013 Rise Set
Actual Time 7:21 AM EST 5:35 PM EST
Civil Twilight 6:55 AM EST 6:01 PM EST
Nautical Twilight 6:25 AM EST 6:31 PM EST
Astronomical Twilight 5:56 AM EST 7:01 PM EST
Moon 3:08 PM EST (12/13) 3:54 AM EST (12/13)
Length of Visible Light 11h 06m
Length of Day
10h 13m
Waxing Gibbous, 88% of the Moon is Illuminated
Dec 13
Waxing Gibbous
Dec 17
Full
Dec 25
Last Quarter
Jan 1
New
Jan 7
First Quarter

Hourly Weather History & Observations

Time (EST) Temp. Windchill Dew Point Humidity Pressure Visibility Wind Dir Wind Speed Gust Speed Precip Events Conditions
12:15 AM 33.8 °F - 32.0 °F 93% 30.36 in 10.0 mi Calm Calm - N/A   Clear
12:35 AM 32.0 °F - 30.2 °F 93% 30.35 in 10.0 mi Calm Calm - N/A   Clear
12:53 AM 34.0 °F - 28.9 °F 82% 30.34 in - Calm Calm - N/A   Unknown
12:55 AM 33.8 °F - 32.0 °F 93% 30.35 in 10.0 mi Calm Calm - N/A   Clear
1:15 AM 33.8 °F - 32.0 °F 93% 30.35 in 10.0 mi Calm Calm - N/A   Clear
1:35 AM 35.6 °F 32.8 °F 32.0 °F 87% 30.35 in 10.0 mi North 3.5 mph - N/A   Clear
1:53 AM 36.0 °F 33.3 °F 28.0 °F 73% 30.33 in - NNE 3.5 mph - N/A   Unknown
1:55 AM 35.6 °F - 30.2 °F 81% 30.34 in 10.0 mi Calm Calm - N/A   Clear
2:15 AM 33.8 °F - 30.2 °F 87% 30.34 in 10.0 mi Calm Calm - N/A   Clear
2:35 AM 33.8 °F - 30.2 °F 87% 30.33 in 10.0 mi Calm Calm - N/A   Clear
2:53 AM 34.0 °F - 28.9 °F 82% 30.32 in - Calm Calm - N/A   Unknown
2:55 AM 33.8 °F - 32.0 °F 93% 30.33 in 10.0 mi Calm Calm - N/A   Clear
3:15 AM 33.8 °F - 32.0 °F 93% 30.32 in 10.0 mi Calm Calm - N/A   Clear
3:35 AM 33.8 °F - 32.0 °F 93% 30.32 in 10.0 mi Calm Calm - N/A   Clear
3:53 AM 33.1 °F 30.0 °F 27.0 °F 78% 30.31 in - North 3.5 mph - N/A   Unknown
3:55 AM 32.0 °F 28.7 °F 30.2 °F 93% 30.32 in 10.0 mi NNE 3.5 mph - N/A   Clear
4:15 AM 35.6 °F 32.8 °F 32.0 °F 87% 30.32 in 10.0 mi NNE 3.5 mph - N/A   Clear
4:35 AM 35.6 °F 32.8 °F 32.0 °F 87% 30.31 in 10.0 mi NNE 3.5 mph - N/A   Clear
4:53 AM 36.0 °F 33.3 °F 30.0 °F 79% 30.30 in - NNE 3.5 mph - N/A   Unknown
4:55 AM 35.6 °F - 32.0 °F 87% 30.31 in 10.0 mi Calm Calm - N/A   Clear
5:15 AM 35.6 °F - 32.0 °F 87% 30.32 in 10.0 mi Calm Calm - N/A   Clear
5:35 AM 35.6 °F 31.7 °F 32.0 °F 87% 30.32 in 10.0 mi NNE 4.6 mph - N/A   Clear
5:53 AM 36.0 °F 32.1 °F 30.0 °F 79% 30.31 in - NNE 4.6 mph - N/A   Unknown
5:55 AM 35.6 °F 30.7 °F 32.0 °F 87% 30.32 in 10.0 mi NNE 5.8 mph - N/A   Clear
6:15 AM 35.6 °F 32.8 °F 32.0 °F 87% 30.32 in 10.0 mi NNE 3.5 mph - N/A   Clear
6:35 AM 35.6 °F 32.8 °F 32.0 °F 87% 30.33 in 10.0 mi North 3.5 mph - N/A   Clear
6:53 AM 37.0 °F 33.3 °F 30.9 °F 79% 30.32 in - NNE 4.6 mph - N/A   Unknown
6:55 AM 35.6 °F 32.8 °F 32.0 °F 87% 30.33 in 10.0 mi NNE 3.5 mph - N/A   Clear
7:15 AM 35.6 °F 32.8 °F 32.0 °F 87% 30.33 in 10.0 mi NNE 3.5 mph - N/A   Clear
7:35 AM 37.4 °F - 32.0 °F 81% 30.33 in 10.0 mi Calm Calm - N/A   Clear
7:53 AM 37.9 °F 35.5 °F 32.0 °F 79% 30.32 in - NE 3.5 mph - N/A   Unknown
7:55 AM 37.4 °F 33.8 °F 32.0 °F 81% 30.33 in 10.0 mi ENE 4.6 mph - N/A   Clear
8:15 AM 37.4 °F 34.9 °F 33.8 °F 87% 30.34 in 10.0 mi NE 3.5 mph - N/A   Clear
8:35 AM 41.0 °F 38.0 °F 33.8 °F 76% 30.35 in 10.0 mi ENE 4.6 mph - N/A   Clear
8:53 AM 44.1 °F 41.5 °F 34.0 °F 68% 30.34 in - NE 4.6 mph - N/A   Unknown
9:00 AM 42.8 °F 40.1 °F 33.8 °F 70% 30.35 in 10.0 mi NE 4.6 mph - N/A   Clear
9:15 AM 44.6 °F 43.1 °F 35.6 °F 71% 30.35 in 10.0 mi ENE 3.5 mph - N/A   Clear
9:35 AM 46.4 °F - 35.6 °F 66% 30.36 in 10.0 mi Calm Calm - N/A   Clear
9:53 AM 51.1 °F - 36.0 °F 56% 30.35 in - NE 6.9 mph - 0.02 in   Unknown
9:55 AM 50.0 °F - 35.6 °F 58% 30.36 in 10.0 mi ENE 6.9 mph - N/A   Clear
10:15 AM 51.8 °F - 37.4 °F 58% 30.35 in 10.0 mi ENE 4.6 mph - N/A   Clear
10:35 AM 53.6 °F - 37.4 °F 54% 30.35 in 10.0 mi ENE 9.2 mph - N/A   Clear
10:53 AM 57.0 °F - 39.0 °F 51% 30.33 in - Variable 5.8 mph - 0.01 in   Unknown
10:55 AM 55.4 °F - 37.4 °F 51% 30.34 in 10.0 mi East 6.9 mph - N/A   Clear
11:15 AM 57.2 °F - 41.0 °F 55% 30.33 in 10.0 mi ENE 4.6 mph - N/A   Clear
11:35 AM 59.0 °F - 41.0 °F 51% 30.31 in 10.0 mi ENE 6.9 mph - N/A   Clear
11:53 AM 62.1 °F - 43.0 °F 50% 30.29 in - East 8.1 mph - N/A   Unknown
11:55 AM 60.8 °F - 42.8 °F 52% 30.30 in 10.0 mi East 6.9 mph - N/A   Clear
12:15 PM 60.8 °F - 42.8 °F 52% 30.28 in 10.0 mi East 4.6 mph - N/A   Clear
12:35 PM 62.6 °F - 44.6 °F 52% 30.28 in 10.0 mi ENE 5.8 mph - N/A   Clear
12:53 PM 64.9 °F - 45.0 °F 48% 30.25 in - NE 4.6 mph - N/A   Unknown
12:55 PM 64.4 °F - 44.6 °F 49% 30.26 in 10.0 mi ENE 4.6 mph - N/A   Clear
1:15 PM 64.4 °F - 44.6 °F 49% 30.26 in 10.0 mi ESE 4.6 mph - N/A   Clear
1:35 PM 64.4 °F - 46.4 °F 52% 30.24 in 10.0 mi East 4.6 mph - N/A   Clear
1:53 PM 66.0 °F - 46.9 °F 50% 30.20 in - East 4.6 mph - N/A   Unknown
1:55 PM 64.4 °F - 46.4 °F 52% 30.21 in 10.0 mi ESE 4.6 mph - N/A   Clear
2:15 PM 66.2 °F - 46.4 °F 49% 30.21 in 10.0 mi East 5.8 mph - N/A   Clear
2:35 PM 68.0 °F - 46.4 °F 46% 30.21 in 10.0 mi ENE 5.8 mph - N/A   Clear
2:53 PM 68.0 °F - 46.9 °F 47% 30.20 in - SSE 6.9 mph - 0.01 in   Unknown
2:55 PM 66.2 °F - 46.4 °F 49% 30.21 in 10.0 mi SSE 6.9 mph - N/A   Clear
3:15 PM 68.0 °F - 46.4 °F 46% 30.20 in 10.0 mi ESE 5.8 mph - N/A   Clear
3:35 PM 68.0 °F - 46.4 °F 46% 30.20 in 10.0 mi SE 4.6 mph - N/A   Clear
3:53 PM 69.1 °F - 46.9 °F 45% 30.17 in - ESE 6.9 mph - N/A   Unknown
3:55 PM 68.0 °F - 46.4 °F 46% 30.18 in 10.0 mi SE 6.9 mph - N/A   Clear
4:15 PM 68.0 °F - 46.4 °F 46% 30.19 in 10.0 mi SE 6.9 mph - N/A   Clear
4:35 PM 68.0 °F - 46.4 °F 46% 30.19 in 10.0 mi SE 5.8 mph - N/A   Clear
4:53 PM 66.9 °F - 48.0 °F 51% 30.18 in - East 4.6 mph - N/A   Unknown
4:55 PM 66.2 °F - 46.4 °F 49% 30.19 in 10.0 mi East 3.5 mph - N/A   Clear
5:15 PM 64.4 °F - 48.2 °F 56% 30.18 in 10.0 mi Calm Calm - N/A   Clear
5:35 PM 60.8 °F - 50.0 °F 68% 30.18 in 10.0 mi East 3.5 mph - N/A   Clear
5:53 PM 57.0 °F - 48.0 °F 72% 30.17 in - Calm Calm - N/A   Unknown
5:55 PM 57.2 °F - 50.0 °F 77% 30.18 in 10.0 mi Calm Calm - N/A   Clear
6:15 PM 53.6 °F - 50.0 °F 88% 30.18 in 10.0 mi Calm Calm - N/A   Clear
6:35 PM 53.6 °F - 50.0 °F 88% 30.18 in 10.0 mi Calm Calm - N/A   Clear
6:53 PM 53.1 °F - 48.0 °F 83% 30.17 in - Calm Calm - N/A   Unknown
6:55 PM 51.8 °F - 50.0 °F 94% 30.18 in 10.0 mi Calm Calm - N/A   Clear
7:15 PM 51.8 °F - 48.2 °F 88% 30.18 in 10.0 mi Calm Calm - N/A   Clear
7:35 PM 51.8 °F - 48.2 °F 88% 30.18 in 10.0 mi Calm Calm - N/A   Clear
7:53 PM 52.0 °F - 48.0 °F 86% 30.18 in - Calm Calm - N/A   Unknown
7:55 PM 51.8 °F - 48.2 °F 88% 30.19 in 10.0 mi Calm Calm - N/A   Clear
8:15 PM 51.8 °F - 50.0 °F 94% 30.19 in 10.0 mi East 3.5 mph - N/A   Clear
8:35 PM 53.6 °F - 50.0 °F 88% 30.19 in 10.0 mi Calm Calm - N/A   Clear
8:53 PM 55.9 °F - 50.0 °F 80% 30.18 in - NE 3.5 mph - N/A   Unknown
8:55 PM 55.4 °F - 50.0 °F 82% 30.18 in 10.0 mi NE 3.5 mph - N/A   Clear
9:15 PM 55.4 °F - 50.0 °F 82% 30.18 in 10.0 mi ENE 3.5 mph - N/A   Clear
9:35 PM 55.4 °F - 50.0 °F 82% 30.16 in 10.0 mi East 4.6 mph - N/A   Clear
9:53 PM 57.0 °F - 50.0 °F 77% 30.16 in - Variable 5.8 mph - N/A   Unknown
9:55 PM 55.4 °F - 51.8 °F 88% 30.16 in 10.0 mi East 4.6 mph - N/A   Clear
10:15 PM 55.4 °F - 51.8 °F 88% 30.17 in 10.0 mi ENE 5.8 mph - N/A   Clear
10:35 PM 55.4 °F - 51.8 °F 88% 30.16 in 10.0 mi East 3.5 mph - N/A   Clear
10:53 PM 55.9 °F - 50.0 °F 80% 30.15 in - Variable 3.5 mph - N/A   Unknown
10:55 PM 55.4 °F - 51.8 °F 88% 30.15 in 10.0 mi East 3.5 mph - N/A   Clear
11:15 PM 55.4 °F - 51.8 °F 88% 30.16 in 10.0 mi Calm Calm - N/A   Clear
11:35 PM 53.6 °F - 51.8 °F 94% 30.15 in 10.0 mi ENE 3.5 mph - N/A   Clear
11:53 PM 55.0 °F - 50.0 °F 83% 30.13 in - East 3.5 mph - N/A   Unknown
11:55 PM 53.6 °F - 51.8 °F 94% 30.14 in 10.0 mi East 4.6 mph - N/A   Clear